Location: Fort Worth, Tx
(32.7431°N, 97.3695°W)
Time: 12:09:16
(UTC-05:00)

Tiros 1 - Visible Passes

Search period start: 07 February 2023 00:00
Search period end: 17 February 2023 00:00
Orbit: 629 x 662 km, 48.4° (Epoch: 06 February)

Date Brightness Start Highest point End Pass type
(mag) Time Alt. Az. Time Alt. Az. Time Alt. Az.
07 Feb 9.4 05:37:09 22° ENE 05:37:09 22° ENE 05:39:26 10° E visible
07 Feb 7.3 07:14:49 21° WNW 07:17:47 58° SW 07:22:25 10° SE visible
08 Feb 8.0 06:01:53 47° ENE 06:01:53 47° ENE 06:05:40 10° ESE visible
08 Feb 8.5 07:39:33 11° W 07:42:57 23° SW 07:46:38 10° S visible
09 Feb 7.2 06:26:44 64° SSW 06:26:44 64° SSW 06:31:07 10° SE visible
10 Feb 10.2 05:14:00 11° ESE 05:14:00 11° ESE 05:14:14 10° ESE visible
10 Feb 8.3 06:51:40 26° SW 06:51:40 26° SW 06:55:31 10° S visible
10 Feb 9.0 20:56:43 10° S 20:58:21 18° S 20:58:21 18° S visible
11 Feb 9.7 05:39:01 15° SE 05:39:01 15° SE 05:39:48 10° SE visible
11 Feb 8.6 21:21:04 10° SW 21:23:27 30° SSW 21:23:27 30° SSW visible
12 Feb 9.7 06:04:05 11° S 06:04:05 11° S 06:04:22 10° SSE visible
12 Feb 8.5 20:05:38 10° S 20:09:09 21° SE 20:10:51 18° E visible
12 Feb 9.1 21:46:29 10° WSW 21:48:31 25° WSW 21:48:31 25° WSW visible
13 Feb 7.2 20:29:46 10° SSW 20:34:17 55° SE 20:35:49 36° E visible
13 Feb 10.0 22:12:40 10° W 22:13:28 14° W 22:13:28 14° W visible
14 Feb 7.4 20:55:03 10° WSW 20:59:38 61° NW 21:00:42 46° NNE visible
15 Feb 7.5 19:38:30 10° SSW 19:42:57 48° SE 19:47:23 10° ENE visible
15 Feb 8.6 21:21:09 10° W 21:25:12 30° NNW 21:25:29 29° NNW visible
16 Feb 7.3 20:03:39 10° WSW 20:08:15 69° NW 20:12:32 12° NE visible
16 Feb 9.5 21:47:53 10° WNW 21:50:11 17° NW 21:50:11 17° NW visible
